Location: Oakley
(37.9974°N, 121.7125°W)
Time: 12:42:05
(UTC+00:00)

Cosmos 1697 Rocket - Pass Details

Date: 13 February 2026
Orbit: 830 x 844 km, 71.0° (Epoch: 17 March)

Event Time Altitude Azimuth Distance (km) Brightness Sun altitude
Exits shadow 13:14:35 32° 315° (NW) 1,420 3.5 -21.1°
Drops below altitude 10° 13:18:56 10° 4° (N) 2,464 5.1 -20.3°
Sets 13:21:39 0° 14° (NNE) 3,404 6.0 -19.7°
